Location: Ohmer (historical)
(38.0096°N, 122.0227°W)
Time: 02:55:56
(UTC+00:00)

Cosmos 2263 Rocket - Pass Details

Date: 14 February 2026
Orbit: 822 x 848 km, 71.0° (Epoch: 13 March)

Event Time Altitude Azimuth Distance (km) Brightness Sun altitude
Exits shadow 13:27:07 - 336° (NNW) 3,040 4.8 -18.7°
Reaches altitude 10° 13:28:37 10° 335° (NNW) 2,469 4.4 -18.4°
Maximum altitude 13:34:17 79° 250° (WSW) 858 2.1 -17.3°
Drops below altitude 10° 13:39:52 10° 164° (SSE) 2,436 4.8 -16.2°
Sets 13:42:17 0° 163° (SSE) 3,362 5.6 -15.7°
